Location: Arbon
(43.0005°N, 0.7472°E)
Time: 22:32:48
(UTC+00:00)

Explorer 7 - Pass Details

Date: 05 December 2020
Orbit: 484 x 678 km, 50.3° (Epoch: 25 January)

Event Time Altitude Azimuth Distance (km) Brightness Sun altitude
Rises 03:21:56 0° 295° (WNW) 2,894 - -41.4°
Reaches altitude 10° 03:24:28 10° 304° (NW) 1,953 - -41.0°
Maximum altitude 03:28:36 36° 12° (NNE) 923 - -40.2°
Drops below altitude 10° 03:32:29 10° 80° (E) 1,834 - -39.5°
Exits shadow 03:32:55 - 83° (E) 1,990 10.4 -39.4°
Sets 03:34:47 0° 89° (E) 2,692 11.3 -39.1°
